Погода в Эль-Альто

Боливия     16°31′51″S   68°11′37″W
темп.,
°C
ветер,
м/с
пор.,
м/с
влажн.,
%
обл.,
%
осадки,
мм/ч
давл.,
гПа
погр.,
м
24 февраля, ср
ср2423:00+5св3463100 0.0 102054
02:00+3св3363100 0.0 101943
05:00+2св227390 0.0 102128
08:00+6всв236389 0.0 1022310
11:00+12всв3443100 0.0 10201754
14:00+15в544291 0.0 10141908
17:00+14всв5443100 0.0 10121454
20:00+6св556999 0.0 101694
25 февраля, чт
чт2523:00+5св237181 0.0 102044
02:00+4св227891 0.0 101935
05:00+3св1284100 0.0 102024
08:00+7в2263100 0.0 1021276
11:00+13вюв234182 0.0 10181472
14:00+16вюв433749 0.0 10132222
17:00+14св434756 0.2 10101581
20:00+7св467571 0.3 1013169
26 февраля, пт
пт2623:00+5св338358 0.0 101768
02:00+4св228729 0.0 101643
05:00+3с119247 0.0 101726
08:00+6всв117628 0.0 1018306
11:00+12юв224897 0.0 10161494
14:00+13св334987 0.5 10111490
17:00+13ссв445290 1.3 1009851
20:00+7св457645 1.3 1014110
27 февраля, сб
сб2723:00+5св228532 0.0 101748
02:00+5св128640 0.0 101730
05:00+4в2285100 0.0 101728
08:00+7в126993 0.0 1018336
11:00+12ююв234611 0.0 10161413
14:00+12всв555930 0.8 10121172
17:00+13св555552 1.0 10091143
20:00+6св457627 1.0 1014103
28 февраля, вс
вс2823:00+5св22770 0.0 101737
02:00+5всв238429 0.3 101690
05:00+5св2390100 2.4 1016212
08:00+5св1287100 5.4 1018242
11:00+10св116897 0.3 1016796
14:00+12ссв445985 1.3 1012765
17:00+12ссв445655 0.3 10091101
20:00+7св347949 0.3 1012103